Time,TemperatureF,DewpointF,PressureIn,WindDirection,WindDirectionDegrees,WindSpeedMPH,WindSpeedGustMPH,Humidity,HourlyPrecipIn,Conditions,Clouds,dailyrainin,SoftwareType,DateUTC
2013-08-28 00:02:00,75.4,69.1,29.92,SE,137,0.0,2.0,81,0.00,,,0.00,meteohub,2013-08-28 04:02:00,
2013-08-28 00:08:00,75.6,69.3,29.92,SSE,155,0.0,2.0,81,0.00,,,0.00,meteohub,2013-08-28 04:08:00,
2013-08-28 00:12:00,75.6,69.3,29.92,SSE,155,0.0,2.0,81,0.00,,,0.00,meteohub,2013-08-28 04:12:00,
2013-08-28 00:17:00,75.4,69.1,29.92,SSE,150,0.0,2.0,81,0.00,,,0.00,meteohub,2013-08-28 04:17:00,
2013-08-28 00:22:00,75.4,69.1,29.92,SSE,150,0.0,1.0,81,0.00,,,0.00,meteohub,2013-08-28 04:22:00,
2013-08-28 00:27:00,75.2,68.9,29.92,SSE,150,0.0,1.0,81,0.00,,,0.00,meteohub,2013-08-28 04:27:00,
2013-08-28 00:32:00,75.0,68.7,29.92,SSE,150,0.0,1.0,81,0.00,,,0.00,meteohub,2013-08-28 04:32:00,
2013-08-28 00:37:00,74.8,68.9,29.92,SSE,151,1.0,1.0,82,0.00,,,0.00,meteohub,2013-08-28 04:37:00,
2013-08-28 00:42:00,74.8,68.9,29.92,SSE,151,0.0,1.0,82,0.00,,,0.00,meteohub,2013-08-28 04:42:00,
2013-08-28 00:47:00,74.8,68.9,29.91,SSE,151,0.0,1.0,82,0.00,,,0.00,meteohub,2013-08-28 04:47:00,
2013-08-28 00:52:00,74.8,68.9,29.91,SSE,151,0.0,1.0,82,0.00,,,0.00,meteohub,2013-08-28 04:52:00,
2013-08-28 00:57:00,74.7,69.1,29.91,SSE,151,0.0,1.0,83,0.00,,,0.00,meteohub,2013-08-28 04:57:00,
2013-08-28 01:02:00,74.7,69.1,29.91,ESE,122,0.0,1.0,83,0.00,,,0.00,meteohub,2013-08-28 05:02:00,
2013-08-28 01:07:00,74.7,69.1,29.91,ENE,70,0.0,1.0,83,0.00,,,0.00,meteohub,2013-08-28 05:07:00,
2013-08-28 01:12:00,74.7,69.1,29.91,East,81,0.0,1.0,83,0.00,,,0.00,meteohub,2013-08-28 05:12:00,
2013-08-28 01:17:00,74.7,69.1,29.91,East,86,0.0,1.0,83,0.00,,,0.00,meteohub,2013-08-28 05:17:00,
2013-08-28 01:22:00,74.5,68.9,29.90,East,87,0.0,1.0,83,0.00,,,0.00,meteohub,2013-08-28 05:22:00,
2013-08-28 01:27:00,74.5,68.9,29.90,South,169,0.0,1.0,83,0.00,,,0.00,meteohub,2013-08-28 05:27:00,
2013-08-28 01:32:00,74.5,68.9,29.90,SSE,168,0.0,2.0,83,0.00,,,0.00,meteohub,2013-08-28 05:32:00,
2013-08-28 01:37:00,74.7,69.1,29.90,SSE,168,0.0,2.0,83,0.00,,,0.00,meteohub,2013-08-28 05:37:00,
2013-08-28 01:42:00,74.7,69.1,29.90,SSE,168,2.0,2.0,83,0.00,,,0.00,meteohub,2013-08-28 05:42:00,
2013-08-28 01:47:00,74.7,69.1,29.90,South,178,0.0,2.0,83,0.00,,,0.00,meteohub,2013-08-28 05:47:00,
2013-08-28 01:52:00,74.7,69.1,29.90,South,178,0.0,2.0,83,0.00,,,0.00,meteohub,2013-08-28 05:52:00,
2013-08-28 01:57:00,74.8,69.3,29.90,South,177,0.0,2.0,83,0.00,,,0.00,meteohub,2013-08-28 05:57:00,
2013-08-28 02:02:00,74.8,69.3,29.90,SE,137,0.0,2.0,83,0.00,,,0.00,meteohub,2013-08-28 06:02:00,
2013-08-28 02:07:00,74.8,69.3,29.89,SE,137,0.0,1.0,83,0.00,,,0.00,meteohub,2013-08-28 06:07:00,
2013-08-28 02:12:00,74.8,69.3,29.89,SE,138,0.0,2.0,83,0.00,,,0.00,meteohub,2013-08-28 06:12:00,
2013-08-28 02:17:00,74.8,69.3,29.89,East,101,0.0,2.0,83,0.00,,,0.00,meteohub,2013-08-28 06:17:00,
2013-08-28 02:22:00,74.8,69.3,29.89,East,101,0.0,2.0,83,0.00,,,0.00,meteohub,2013-08-28 06:22:00,
2013-08-28 02:27:00,74.8,69.6,29.88,East,101,0.0,2.0,84,0.00,,,0.00,meteohub,2013-08-28 06:27:00,
2013-08-28 02:32:00,74.7,69.4,29.88,East,101,0.0,2.0,84,0.00,,,0.00,meteohub,2013-08-28 06:32:00,
2013-08-28 02:37:00,74.5,69.3,29.88,East,98,0.0,1.0,84,0.00,,,0.00,meteohub,2013-08-28 06:37:00,
2013-08-28 02:42:00,74.3,69.1,29.88,East,98,0.0,1.0,84,0.00,,,0.00,meteohub,2013-08-28 06:42:00,
2013-08-28 02:47:00,74.1,69.3,29.88,East,98,0.0,1.0,85,0.00,,,0.00,meteohub,2013-08-28 06:47:00,
2013-08-28 02:52:00,73.9,69.1,29.88,East,92,0.0,1.0,85,0.00,,,0.00,meteohub,2013-08-28 06:52:00,
2013-08-28 02:57:00,73.9,69.1,29.88,East,100,0.0,1.0,85,0.00,,,0.00,meteohub,2013-08-28 06:57:00,
2013-08-28 03:02:00,74.1,69.3,29.88,SSE,147,0.0,1.0,85,0.00,,,0.00,meteohub,2013-08-28 07:02:00,
2013-08-28 03:07:00,74.3,69.1,29.88,SSE,157,0.0,2.0,84,0.00,,,0.00,meteohub,2013-08-28 07:07:00,
2013-08-28 03:12:00,74.5,69.3,29.88,SSE,157,0.0,2.0,84,0.00,,,0.00,meteohub,2013-08-28 07:12:00,
2013-08-28 03:17:00,74.5,69.3,29.88,ENE,65,0.0,2.0,84,0.00,,,0.00,meteohub,2013-08-28 07:17:00,
2013-08-28 03:22:00,74.5,69.3,29.88,ENE,65,0.0,2.0,84,0.00,,,0.00,meteohub,2013-08-28 07:22:00,
2013-08-28 03:27:00,74.5,69.3,29.87,ENE,74,0.0,2.0,84,0.00,,,0.00,meteohub,2013-08-28 07:27:00,
2013-08-28 03:32:00,74.5,69.3,29.87,ENE,74,0.0,1.0,84,0.00,,,0.00,meteohub,2013-08-28 07:32:00,
2013-08-28 03:37:00,74.5,70.0,29.87,East,91,0.0,1.0,86,0.00,,,0.00,meteohub,2013-08-28 07:37:00,
2013-08-28 03:42:00,74.1,70.0,29.87,East,91,0.0,1.0,87,0.01,,,0.01,meteohub,2013-08-28 07:42:00,
2013-08-28 03:47:00,73.9,69.4,29.87,East,91,0.0,1.0,86,0.01,,,0.01,meteohub,2013-08-28 07:47:00,
2013-08-28 03:52:00,73.8,69.3,29.87,ESE,110,0.0,1.0,86,0.01,,,0.01,meteohub,2013-08-28 07:52:00,
2013-08-28 03:57:00,73.8,69.3,29.87,ESE,113,0.0,1.0,86,0.01,,,0.01,meteohub,2013-08-28 07:57:00,
2013-08-28 04:02:00,73.8,69.6,29.87,ESE,113,0.0,1.0,87,0.01,,,0.01,meteohub,2013-08-28 08:02:00,
2013-08-28 04:07:00,73.8,70.0,29.87,ESE,113,0.0,1.0,88,0.02,,,0.02,meteohub,2013-08-28 08:07:00,
2013-08-28 04:12:00,73.4,70.0,29.88,ESE,113,0.0,1.0,89,0.02,,,0.02,meteohub,2013-08-28 08:12:00,
2013-08-28 04:17:00,73.0,69.6,29.88,ESE,113,0.0,1.0,89,0.03,,,0.03,meteohub,2013-08-28 08:17:00,
2013-08-28 04:22:00,72.9,69.8,29.88,ESE,113,0.0,1.0,90,0.04,,,0.03,meteohub,2013-08-28 08:22:00,
2013-08-28 04:27:00,72.7,70.0,29.88,ESE,113,0.0,1.0,91,0.05,,,0.05,meteohub,2013-08-28 08:27:00,
2013-08-28 04:32:00,72.3,69.8,29.88,ESE,113,0.0,0.0,92,0.07,,,0.07,meteohub,2013-08-28 08:32:00,
2013-08-28 04:37:00,72.1,69.6,29.88,ESE,113,0.0,0.0,92,0.08,,,0.09,meteohub,2013-08-28 08:37:00,
2013-08-28 04:42:00,72.0,69.4,29.87,ESE,113,0.0,0.0,92,0.09,,,0.10,meteohub,2013-08-28 08:42:00,
2013-08-28 04:47:00,71.8,69.6,29.87,ESE,113,0.0,1.0,93,0.11,,,0.12,meteohub,2013-08-28 08:47:00,
2013-08-28 04:52:00,71.6,69.4,29.87,ESE,113,0.0,1.0,93,0.11,,,0.12,meteohub,2013-08-28 08:52:00,
2013-08-28 04:57:00,71.4,69.6,29.87,ESE,113,0.0,1.0,94,0.13,,,0.14,meteohub,2013-08-28 08:57:00,
2013-08-28 05:02:00,71.2,69.4,29.86,ESE,113,0.0,1.0,94,0.13,,,0.15,meteohub,2013-08-28 09:02:00,
2013-08-28 05:07:00,71.2,69.4,29.86,ESE,113,0.0,1.0,94,0.14,,,0.16,meteohub,2013-08-28 09:07:00,
2013-08-28 05:12:00,71.1,69.3,29.86,ESE,113,0.0,1.0,94,0.15,,,0.17,meteohub,2013-08-28 09:12:00,
2013-08-28 05:17:00,71.1,69.3,29.86,ESE,113,0.0,0.0,94,0.14,,,0.17,meteohub,2013-08-28 09:17:00,
2013-08-28 05:22:00,70.9,69.1,29.86,ESE,113,0.0,0.0,94,0.14,,,0.18,meteohub,2013-08-28 09:22:00,
2013-08-28 05:27:00,70.9,69.4,29.86,ESE,113,0.0,0.0,95,0.12,,,0.18,meteohub,2013-08-28 09:27:00,
2013-08-28 05:32:00,70.9,69.4,29.86,ESE,113,0.0,1.0,95,0.10,,,0.18,meteohub,2013-08-28 09:32:00,
2013-08-28 05:34:00,70.7,69.3,29.86,ESE,113,0.0,1.0,95,0.10,,,0.18,meteohub,2013-08-28 09:34:00,
2013-08-28 05:40:00,70.7,68.9,29.87,ESE,113,0.0,1.0,94,0.10,,,0.19,meteohub,2013-08-28 09:40:00,
2013-08-28 05:46:00,70.5,69.1,29.87,ESE,113,0.0,0.0,95,0.07,,,0.19,meteohub,2013-08-28 09:46:00,
2013-08-28 05:52:00,70.5,69.1,29.88,ESE,113,0.0,0.0,95,0.06,,,0.19,meteohub,2013-08-28 09:52:00,
2013-08-28 05:57:00,70.3,68.9,29.88,ESE,113,0.0,0.0,95,0.05,,,0.19,meteohub,2013-08-28 09:57:00,
2013-08-28 06:02:00,70.3,68.9,29.88,ESE,113,0.0,0.0,95,0.05,,,0.20,meteohub,2013-08-28 10:02:00,
2013-08-28 06:07:00,70.3,68.9,29.88,ESE,113,0.0,0.0,95,0.03,,,0.20,meteohub,2013-08-28 10:07:00,
2013-08-28 06:12:00,70.3,69.1,29.88,ESE,113,0.0,0.0,96,0.04,,,0.21,meteohub,2013-08-28 10:12:00,
2013-08-28 06:17:00,70.3,69.1,29.88,ESE,113,0.0,1.0,96,0.03,,,0.21,meteohub,2013-08-28 10:17:00,
2013-08-28 06:22:00,70.3,69.1,29.88,ESE,113,0.0,1.0,96,0.03,,,0.21,meteohub,2013-08-28 10:22:00,
2013-08-28 06:27:00,70.3,69.1,29.88,ESE,113,0.0,1.0,96,0.04,,,0.22,meteohub,2013-08-28 10:27:00,
2013-08-28 06:32:00,70.3,69.1,29.88,ESE,113,0.0,1.0,96,0.05,,,0.23,meteohub,2013-08-28 10:32:00,
2013-08-28 06:37:00,70.3,69.1,29.88,ESE,113,0.0,1.0,96,0.04,,,0.23,meteohub,2013-08-28 10:37:00,
2013-08-28 06:42:00,70.3,69.1,29.88,ESE,113,0.0,0.0,96,0.04,,,0.23,meteohub,2013-08-28 10:42:00,
2013-08-28 06:47:00,70.2,68.9,29.89,ESE,113,0.0,0.0,96,0.05,,,0.24,meteohub,2013-08-28 10:47:00,
2013-08-28 06:52:00,70.2,68.9,29.89,East,95,0.0,0.0,96,0.05,,,0.24,meteohub,2013-08-28 10:52:00,
2013-08-28 06:57:00,70.0,68.7,29.89,ENE,69,0.0,2.0,96,0.04,,,0.24,meteohub,2013-08-28 10:57:00,
2013-08-28 07:02:00,69.6,68.4,29.89,ENE,63,0.0,2.0,96,0.05,,,0.25,meteohub,2013-08-28 11:02:00,
2013-08-28 07:07:00,69.4,68.2,29.89,SE,144,0.0,2.0,96,0.04,,,0.25,meteohub,2013-08-28 11:07:00,
2013-08-28 07:12:00,69.4,68.2,29.90,SE,144,0.0,2.0,96,0.05,,,0.26,meteohub,2013-08-28 11:12:00,
2013-08-28 07:17:00,69.4,68.2,29.90,SE,144,0.0,2.0,96,0.06,,,0.27,meteohub,2013-08-28 11:17:00,
2013-08-28 07:22:00,69.4,68.2,29.90,SE,134,0.0,2.0,96,0.07,,,0.28,meteohub,2013-08-28 11:22:00,
2013-08-28 07:27:00,69.4,68.2,29.90,SE,134,0.0,1.0,96,0.07,,,0.29,meteohub,2013-08-28 11:27:00,
2013-08-28 07:32:00,69.4,68.2,29.91,ESE,103,2.0,2.0,96,0.09,,,0.32,meteohub,2013-08-28 11:32:00,
2013-08-28 07:37:00,69.6,68.4,29.91,SE,131,0.0,2.0,96,0.09,,,0.32,meteohub,2013-08-28 11:37:00,
2013-08-28 07:42:00,69.6,68.7,29.91,East,96,0.0,2.0,97,0.08,,,0.32,meteohub,2013-08-28 11:42:00,
2013-08-28 07:47:00,69.6,68.7,29.91,ESE,115,0.0,2.0,97,0.08,,,0.32,meteohub,2013-08-28 11:47:00,
2013-08-28 07:52:00,69.6,68.7,29.91,SE,145,1.0,2.0,97,0.08,,,0.32,meteohub,2013-08-28 11:52:00,
2013-08-28 07:57:00,69.6,68.7,29.91,WSW,242,0.0,3.0,97,0.09,,,0.33,meteohub,2013-08-28 11:57:00,
2013-08-28 08:02:00,69.6,68.7,29.91,NW,307,2.0,3.0,97,0.08,,,0.33,meteohub,2013-08-28 12:02:00,
2013-08-28 08:07:00,69.6,68.4,29.91,NW,309,0.0,3.0,96,0.08,,,0.33,meteohub,2013-08-28 12:07:00,
2013-08-28 08:12:00,69.6,68.4,29.91,South,173,1.0,3.0,96,0.07,,,0.33,meteohub,2013-08-28 12:12:00,
2013-08-28 08:17:00,69.6,68.4,29.91,SSE,164,4.0,4.0,96,0.07,,,0.34,meteohub,2013-08-28 12:17:00,
2013-08-28 08:22:00,69.4,68.2,29.91,East,93,2.0,5.0,96,0.07,,,0.35,meteohub,2013-08-28 12:22:00,
2013-08-28 08:27:00,69.4,68.2,29.91,SSW,211,1.0,5.0,96,0.07,,,0.37,meteohub,2013-08-28 12:27:00,
2013-08-28 08:32:00,69.4,68.2,29.91,ESE,117,0.0,5.0,96,0.05,,,0.37,meteohub,2013-08-28 12:32:00,
2013-08-28 08:37:00,69.4,68.2,29.91,East,93,0.0,5.0,96,0.05,,,0.37,meteohub,2013-08-28 12:37:00,
2013-08-28 08:42:00,69.4,68.5,29.91,North,0,2.0,5.0,97,0.05,,,0.37,meteohub,2013-08-28 12:42:00,
2013-08-28 08:47:00,69.4,68.5,29.91,SW,217,0.0,5.0,97,0.06,,,0.38,meteohub,2013-08-28 12:47:00,
2013-08-28 08:52:00,69.4,68.5,29.91,SE,142,2.0,6.0,97,0.06,,,0.38,meteohub,2013-08-28 12:52:00,
2013-08-28 08:57:00,69.4,68.2,29.91,SSW,211,0.0,6.0,96,0.05,,,0.38,meteohub,2013-08-28 12:57:00,
2013-08-28 09:02:00,69.4,68.2,29.91,East,84,0.0,6.0,96,0.05,,,0.38,meteohub,2013-08-28 13:02:00,
2013-08-28 09:07:00,69.4,68.2,29.91,East,86,1.0,5.0,96,0.06,,,0.39,meteohub,2013-08-28 13:07:00,
2013-08-28 09:12:00,69.4,68.2,29.90,South,181,0.0,5.0,96,0.06,,,0.39,meteohub,2013-08-28 13:12:00,
2013-08-28 09:17:00,69.4,68.2,29.90,SSW,192,1.0,3.0,96,0.05,,,0.39,meteohub,2013-08-28 13:17:00,
2013-08-28 09:22:00,69.4,68.5,29.90,ENE,77,0.0,3.0,97,0.03,,,0.39,meteohub,2013-08-28 13:22:00,
2013-08-28 09:27:00,69.6,68.7,29.90,SE,145,0.0,3.0,97,0.02,,,0.39,meteohub,2013-08-28 13:27:00,
2013-08-28 09:32:00,70.0,69.1,29.90,SSE,165,0.0,3.0,97,0.03,,,0.40,meteohub,2013-08-28 13:32:00,
2013-08-28 09:37:00,70.0,69.1,29.90,SSE,165,0.0,3.0,97,0.03,,,0.40,meteohub,2013-08-28 13:37:00,
2013-08-28 09:42:00,70.2,69.3,29.90,SSE,168,0.0,3.0,97,0.02,,,0.40,meteohub,2013-08-28 13:42:00,
2013-08-28 09:47:00,70.2,69.3,29.90,East,96,1.0,3.0,97,0.02,,,0.40,meteohub,2013-08-28 13:47:00,
2013-08-28 09:52:00,70.0,69.1,29.89,ESE,102,2.0,4.0,97,0.02,,,0.40,meteohub,2013-08-28 13:52:00,
2013-08-28 09:57:00,70.2,69.3,29.90,SSE,153,1.0,4.0,97,0.02,,,0.40,meteohub,2013-08-28 13:57:00,
2013-08-28 10:02:00,70.3,69.4,29.90,SSE,153,0.0,4.0,97,0.02,,,0.40,meteohub,2013-08-28 14:02:00,
2013-08-28 10:07:00,70.2,69.3,29.89,SSW,211,0.0,2.0,97,0.01,,,0.40,meteohub,2013-08-28 14:07:00,
2013-08-28 10:12:00,70.0,68.7,29.89,South,184,0.0,3.0,96,0.02,,,0.41,meteohub,2013-08-28 14:12:00,
2013-08-28 10:17:00,70.0,69.1,29.89,South,185,0.0,3.0,97,0.02,,,0.41,meteohub,2013-08-28 14:17:00,
2013-08-28 10:22:00,70.0,69.1,29.90,South,190,0.0,3.0,97,0.02,,,0.41,meteohub,2013-08-28 14:22:00,
2013-08-28 10:27:00,70.0,69.1,29.90,South,188,0.0,2.0,97,0.03,,,0.42,meteohub,2013-08-28 14:27:00,
2013-08-28 10:32:00,70.0,69.1,29.90,South,188,0.0,1.0,97,0.02,,,0.42,meteohub,2013-08-28 14:32:00,
2013-08-28 10:37:00,70.0,69.1,29.89,South,188,0.0,1.0,97,0.03,,,0.43,meteohub,2013-08-28 14:37:00,
2013-08-28 10:42:00,70.0,69.1,29.89,South,188,0.0,1.0,97,0.04,,,0.44,meteohub,2013-08-28 14:42:00,
2013-08-28 10:47:00,70.0,69.1,29.89,South,188,0.0,1.0,97,0.05,,,0.45,meteohub,2013-08-28 14:47:00,
2013-08-28 10:52:00,70.0,69.1,29.88,South,188,0.0,1.0,97,0.07,,,0.47,meteohub,2013-08-28 14:52:00,
2013-08-28 10:57:00,70.0,69.1,29.88,South,188,0.0,1.0,97,0.07,,,0.47,meteohub,2013-08-28 14:57:00,
2013-08-28 11:02:00,69.8,68.9,29.89,South,188,0.0,1.0,97,0.08,,,0.48,meteohub,2013-08-28 15:02:00,
2013-08-28 11:07:00,69.8,68.9,29.88,South,185,0.0,0.0,97,0.08,,,0.48,meteohub,2013-08-28 15:07:00,
2013-08-28 11:12:00,69.8,68.9,29.87,South,185,0.0,0.0,97,0.08,,,0.49,meteohub,2013-08-28 15:12:00,
2013-08-28 11:17:00,70.0,69.1,29.87,South,185,0.0,1.0,97,0.09,,,0.49,meteohub,2013-08-28 15:17:00,
2013-08-28 11:22:00,69.8,68.9,29.87,ESE,115,0.0,1.0,97,0.09,,,0.50,meteohub,2013-08-28 15:22:00,
2013-08-28 11:27:00,69.6,68.7,29.88,NNE,12,0.0,2.0,97,0.09,,,0.51,meteohub,2013-08-28 15:27:00,
2013-08-28 11:32:00,69.8,68.9,29.88,SE,126,0.0,2.0,97,0.09,,,0.51,meteohub,2013-08-28 15:32:00,
2013-08-28 11:37:00,70.0,69.1,29.88,SSW,199,1.0,2.0,97,0.09,,,0.52,meteohub,2013-08-28 15:37:00,
2013-08-28 11:42:00,70.2,69.3,29.88,SE,128,0.0,2.0,97,0.07,,,0.52,meteohub,2013-08-28 15:42:00,
2013-08-28 11:47:00,70.2,69.3,29.87,SSE,159,0.0,2.0,97,0.06,,,0.52,meteohub,2013-08-28 15:47:00,
2013-08-28 11:52:00,70.3,69.4,29.87,ESE,109,1.0,2.0,97,0.05,,,0.52,meteohub,2013-08-28 15:52:00,
2013-08-28 11:57:00,70.5,69.6,29.88,ESE,109,0.0,2.0,97,0.04,,,0.52,meteohub,2013-08-28 15:57:00,
2013-08-28 12:02:00,70.5,69.6,29.88,NNW,333,0.0,2.0,97,0.04,,,0.52,meteohub,2013-08-28 16:02:00,
2013-08-28 12:09:00,70.3,69.4,29.87,East,93,0.0,2.0,97,0.04,,,0.52,meteohub,2013-08-28 16:09:00,
2013-08-28 12:15:00,70.2,69.3,29.87,East,88,0.0,2.0,97,0.08,,,0.58,meteohub,2013-08-28 16:15:00,
2013-08-28 12:21:00,70.2,69.3,29.86,SSE,166,0.0,2.0,97,0.07,,,0.58,meteohub,2013-08-28 16:21:00,
2013-08-28 12:27:00,70.7,69.8,29.85,South,173,0.0,3.0,97,0.07,,,0.58,meteohub,2013-08-28 16:27:00,
2013-08-28 12:32:00,71.1,70.2,29.86,ESE,111,1.0,3.0,97,0.07,,,0.58,meteohub,2013-08-28 16:32:00,
2013-08-28 12:39:00,71.1,70.2,29.86,NNE,20,0.0,2.0,97,0.06,,,0.58,meteohub,2013-08-28 16:39:00,
2013-08-28 12:45:00,71.2,70.3,29.86,NNE,19,0.0,3.0,97,0.06,,,0.58,meteohub,2013-08-28 16:45:00,
2013-08-28 12:52:00,71.4,70.5,29.86,SE,145,0.0,2.0,97,0.06,,,0.58,meteohub,2013-08-28 16:52:00,
2013-08-28 12:57:00,71.8,70.9,29.86,South,171,0.0,2.0,97,0.06,,,0.58,meteohub,2013-08-28 16:57:00,
2013-08-28 13:02:00,72.0,71.1,29.85,South,171,0.0,2.0,97,0.06,,,0.58,meteohub,2013-08-28 17:02:00,
2013-08-28 13:07:00,72.0,70.7,29.85,South,171,0.0,1.0,96,0.06,,,0.58,meteohub,2013-08-28 17:07:00,
2013-08-28 13:12:00,72.1,70.9,29.85,South,171,0.0,1.0,96,0.02,,,0.58,meteohub,2013-08-28 17:12:00,
2013-08-28 13:17:00,72.1,70.9,29.85,South,171,0.0,1.0,96,0.00,,,0.58,meteohub,2013-08-28 17:17:00,
2013-08-28 13:22:00,72.1,70.7,29.84,ESE,115,0.0,1.0,95,0.00,,,0.58,meteohub,2013-08-28 17:22:00,
2013-08-28 13:27:00,72.1,70.7,29.84,ESE,114,0.0,1.0,95,0.00,,,0.58,meteohub,2013-08-28 17:27:00,
2013-08-28 13:32:00,72.3,71.1,29.84,ESE,121,0.0,1.0,96,0.00,,,0.58,meteohub,2013-08-28 17:32:00,
2013-08-28 13:37:00,72.5,71.2,29.84,SE,128,0.0,1.0,96,0.00,,,0.58,meteohub,2013-08-28 17:37:00,
2013-08-28 13:42:00,72.7,71.2,29.84,SE,128,0.0,1.0,95,0.00,,,0.58,meteohub,2013-08-28 17:42:00,
2013-08-28 13:47:00,73.0,71.6,29.84,ENE,71,0.0,0.0,95,0.00,,,0.58,meteohub,2013-08-28 17:47:00,
2013-08-28 13:52:00,73.0,71.2,29.83,ESE,103,0.0,1.0,94,0.00,,,0.58,meteohub,2013-08-28 17:52:00,
2013-08-28 13:57:00,73.0,71.2,29.83,SSE,159,0.0,2.0,94,0.00,,,0.58,meteohub,2013-08-28 17:57:00,
2013-08-28 14:02:00,73.0,70.9,29.83,SSE,165,0.0,2.0,93,0.00,,,0.58,meteohub,2013-08-28 18:02:00,
2013-08-28 14:07:00,73.6,72.1,29.83,SSE,165,0.0,2.0,95,0.00,,,0.58,meteohub,2013-08-28 18:07:00,
2013-08-28 14:13:00,73.8,72.3,29.83,SSE,165,0.0,2.0,95,0.00,,,0.58,meteohub,2013-08-28 18:13:00,
2013-08-28 14:19:00,73.8,72.3,29.83,SSE,165,0.0,1.0,95,0.00,,,0.58,meteohub,2013-08-28 18:19:00,
2013-08-28 14:25:00,73.6,71.8,29.83,SSE,165,0.0,1.0,94,0.00,,,0.58,meteohub,2013-08-28 18:25:00,
2013-08-28 14:31:00,73.0,71.2,29.83,SSE,165,0.0,0.0,94,0.00,,,0.58,meteohub,2013-08-28 18:31:00,
2013-08-28 14:37:00,72.9,71.1,29.83,SSE,165,0.0,0.0,94,0.00,,,0.58,meteohub,2013-08-28 18:37:00,
2013-08-28 14:42:00,72.9,71.4,29.83,SSE,165,0.0,0.0,95,0.00,,,0.58,meteohub,2013-08-28 18:42:00,
2013-08-28 14:47:00,72.9,71.4,29.83,SSE,165,0.0,0.0,95,0.00,,,0.58,meteohub,2013-08-28 18:47:00,
2013-08-28 14:53:00,72.7,70.9,29.82,SSE,165,0.0,0.0,94,0.00,,,0.58,meteohub,2013-08-28 18:53:00,
2013-08-28 14:59:00,72.7,71.2,29.81,SSE,165,0.0,1.0,95,0.00,,,0.58,meteohub,2013-08-28 18:59:00,
2013-08-28 15:05:00,72.7,71.2,29.81,SSE,165,0.0,1.0,95,0.00,,,0.58,meteohub,2013-08-28 19:05:00,
2013-08-28 15:11:00,72.7,71.2,29.81,SSE,165,0.0,0.0,95,0.00,,,0.58,meteohub,2013-08-28 19:11:00,
2013-08-28 15:17:00,72.7,71.4,29.81,SSE,165,0.0,0.0,96,0.00,,,0.58,meteohub,2013-08-28 19:17:00,
2013-08-28 15:23:00,72.7,71.4,29.81,SSE,165,0.0,0.0,96,0.00,,,0.58,meteohub,2013-08-28 19:23:00,
2013-08-28 15:29:00,72.7,71.4,29.81,SSE,165,0.0,0.0,96,0.00,,,0.58,meteohub,2013-08-28 19:29:00,
2013-08-28 15:35:00,72.5,71.2,29.81,SSE,165,0.0,0.0,96,0.00,,,0.58,meteohub,2013-08-28 19:35:00,
2013-08-28 15:41:00,72.3,71.1,29.80,SSE,165,0.0,0.0,96,0.00,,,0.58,meteohub,2013-08-28 19:41:00,
2013-08-28 15:47:00,72.3,71.1,29.80,SSE,165,0.0,0.0,96,0.00,,,0.58,meteohub,2013-08-28 19:47:00,
2013-08-28 15:52:00,72.3,71.1,29.81,SSE,165,0.0,0.0,96,0.01,,,0.59,meteohub,2013-08-28 19:52:00,
2013-08-28 15:57:00,72.3,71.1,29.81,SSE,165,0.0,0.0,96,0.01,,,0.59,meteohub,2013-08-28 19:57:00,
2013-08-28 16:02:00,72.1,70.9,29.80,SSE,165,0.0,0.0,96,0.01,,,0.59,meteohub,2013-08-28 20:02:00,
2013-08-28 16:07:00,72.3,71.1,29.80,SSE,165,0.0,0.0,96,0.01,,,0.59,meteohub,2013-08-28 20:07:00,
2013-08-28 16:12:00,72.3,71.1,29.80,SSE,165,0.0,0.0,96,0.01,,,0.59,meteohub,2013-08-28 20:12:00,
2013-08-28 16:17:00,72.1,70.9,29.80,SSE,165,0.0,0.0,96,0.01,,,0.59,meteohub,2013-08-28 20:17:00,
2013-08-28 16:22:00,72.1,70.9,29.80,SSE,165,0.0,0.0,96,0.02,,,0.60,meteohub,2013-08-28 20:22:00,
2013-08-28 16:27:00,72.0,70.7,29.80,SSE,165,0.0,0.0,96,0.02,,,0.60,meteohub,2013-08-28 20:27:00,
2013-08-28 16:32:00,72.0,70.7,29.81,SSE,165,0.0,0.0,96,0.03,,,0.61,meteohub,2013-08-28 20:32:00,
2013-08-28 16:38:00,72.0,70.7,29.81,SSE,165,0.0,0.0,96,0.03,,,0.61,meteohub,2013-08-28 20:38:00,
2013-08-28 16:45:00,72.0,71.1,29.80,SSE,165,0.0,0.0,97,0.04,,,0.62,meteohub,2013-08-28 20:45:00,
2013-08-28 16:51:00,72.0,71.1,29.78,SSE,165,0.0,0.0,97,0.04,,,0.63,meteohub,2013-08-28 20:51:00,
2013-08-28 16:57:00,72.0,71.1,29.77,SSE,165,0.0,0.0,97,0.05,,,0.64,meteohub,2013-08-28 20:57:00,
2013-08-28 17:02:00,72.1,71.2,29.78,ESE,102,0.0,1.0,97,0.05,,,0.64,meteohub,2013-08-28 21:02:00,
2013-08-28 17:07:00,72.1,71.2,29.78,North,355,0.0,2.0,97,0.06,,,0.65,meteohub,2013-08-28 21:07:00,
2013-08-28 17:12:00,72.5,71.6,29.78,North,351,0.0,2.0,97,0.06,,,0.65,meteohub,2013-08-28 21:12:00,
2013-08-28 17:17:00,72.7,71.8,29.79,NE,51,0.0,2.0,97,0.05,,,0.65,meteohub,2013-08-28 21:17:00,
2013-08-28 17:22:00,72.7,71.8,29.80,NW,317,0.0,1.0,97,0.05,,,0.65,meteohub,2013-08-28 21:22:00,
2013-08-28 17:27:00,72.5,71.6,29.80,NW,319,1.0,2.0,97,0.05,,,0.65,meteohub,2013-08-28 21:27:00,
2013-08-28 17:32:00,72.3,71.4,29.80,NW,319,0.0,2.0,97,0.04,,,0.65,meteohub,2013-08-28 21:32:00,
2013-08-28 17:37:00,72.1,71.2,29.80,NW,319,0.0,2.0,97,0.04,,,0.65,meteohub,2013-08-28 21:37:00,
2013-08-28 17:42:00,72.0,71.1,29.80,NNW,331,0.0,2.0,97,0.03,,,0.65,meteohub,2013-08-28 21:42:00,
2013-08-28 17:47:00,71.8,70.9,29.80,NNW,331,0.0,2.0,97,0.03,,,0.65,meteohub,2013-08-28 21:47:00,
2013-08-28 17:52:00,71.8,70.9,29.80,NNW,329,0.0,2.0,97,0.02,,,0.65,meteohub,2013-08-28 21:52:00,
2013-08-28 17:57:00,71.8,70.9,29.80,NNW,329,0.0,1.0,97,0.01,,,0.65,meteohub,2013-08-28 21:57:00,
2013-08-28 18:03:00,71.8,70.9,29.79,NW,325,0.0,1.0,97,0.00,,,0.65,meteohub,2013-08-28 22:03:00,
2013-08-28 18:09:00,71.6,70.7,29.79,SW,219,0.0,1.0,97,0.00,,,0.65,meteohub,2013-08-28 22:09:00,
2013-08-28 18:15:00,71.6,70.7,29.79,SW,219,0.0,2.0,97,0.00,,,0.65,meteohub,2013-08-28 22:15:00,
2013-08-28 18:21:00,71.8,70.9,29.79,SW,219,0.0,2.0,97,0.00,,,0.65,meteohub,2013-08-28 22:21:00,
2013-08-28 18:27:00,71.8,70.9,29.79,WNW,296,1.0,1.0,97,0.00,,,0.65,meteohub,2013-08-28 22:27:00,
2013-08-28 18:32:00,71.6,70.7,29.79,NW,316,2.0,2.0,97,0.00,,,0.65,meteohub,2013-08-28 22:32:00,
2013-08-28 18:37:00,71.4,70.5,29.80,North,355,1.0,3.0,97,0.00,,,0.65,meteohub,2013-08-28 22:37:00,
2013-08-28 18:42:00,71.2,70.3,29.80,North,355,0.0,3.0,97,0.00,,,0.65,meteohub,2013-08-28 22:42:00,
2013-08-28 18:47:00,71.2,70.3,29.80,North,355,0.0,3.0,97,0.00,,,0.65,meteohub,2013-08-28 22:47:00,
2013-08-28 18:52:00,71.2,70.3,29.80,North,355,0.0,1.0,97,0.00,,,0.65,meteohub,2013-08-28 22:52:00,
2013-08-28 18:57:00,71.2,70.3,29.81,North,355,0.0,2.0,97,0.00,,,0.65,meteohub,2013-08-28 22:57:00,
2013-08-28 19:02:00,71.2,70.3,29.81,North,355,0.0,2.0,97,0.00,,,0.65,meteohub,2013-08-28 23:02:00,
2013-08-28 19:07:00,71.2,70.3,29.80,ESE,103,0.0,2.0,97,0.00,,,0.65,meteohub,2013-08-28 23:07:00,
2013-08-28 19:17:00,71.2,70.3,29.80,ESE,103,0.0,1.0,97,0.00,,,0.65,meteohub,2013-08-28 23:17:00,
2013-08-28 19:23:00,71.2,70.3,29.80,ESE,103,0.0,1.0,97,0.00,,,0.65,meteohub,2013-08-28 23:23:00,
2013-08-28 19:29:00,71.2,70.3,29.80,ESE,103,0.0,1.0,97,0.00,,,0.65,meteohub,2013-08-28 23:29:00,
2013-08-28 19:35:00,71.1,70.2,29.80,ESE,103,0.0,1.0,97,0.00,,,0.65,meteohub,2013-08-28 23:35:00,
2013-08-28 19:41:00,71.1,70.2,29.81,ESE,103,0.0,1.0,97,0.00,,,0.65,meteohub,2013-08-28 23:41:00,
2013-08-28 19:47:00,71.1,70.2,29.81,ESE,103,0.0,1.0,97,0.00,,,0.65,meteohub,2013-08-28 23:47:00,
2013-08-28 19:53:00,71.1,70.2,29.81,NNE,32,0.0,1.0,97,0.00,,,0.65,meteohub,2013-08-28 23:53:00,
2013-08-28 19:59:00,71.1,70.2,29.82,NNE,32,0.0,2.0,97,0.00,,,0.65,meteohub,2013-08-28 23:59:00,
2013-08-28 20:05:00,71.1,70.2,29.82,NNE,32,0.0,2.0,97,0.00,,,0.65,meteohub,2013-08-29 00:05:00,
2013-08-28 20:12:00,71.1,70.2,29.82,NNE,32,0.0,0.0,97,0.00,,,0.65,meteohub,2013-08-29 00:12:00,
2013-08-28 20:17:00,71.1,70.2,29.83,NNE,32,0.0,1.0,97,0.00,,,0.65,meteohub,2013-08-29 00:17:00,
2013-08-28 20:22:00,71.1,70.2,29.83,NNE,32,0.0,1.0,97,0.00,,,0.65,meteohub,2013-08-29 00:22:00,
2013-08-28 20:27:00,71.1,70.2,29.83,NNE,32,0.0,1.0,97,0.00,,,0.65,meteohub,2013-08-29 00:27:00,
2013-08-28 20:32:00,71.1,70.2,29.83,NNE,32,0.0,0.0,97,0.00,,,0.65,meteohub,2013-08-29 00:32:00,
2013-08-28 20:37:00,71.1,70.2,29.83,NNE,32,0.0,0.0,97,0.00,,,0.65,meteohub,2013-08-29 00:37:00,
2013-08-28 20:42:00,70.9,70.3,29.84,NNE,32,0.0,1.0,98,0.00,,,0.65,meteohub,2013-08-29 00:42:00,
2013-08-28 20:48:00,70.9,70.3,29.84,NNE,32,0.0,1.0,98,0.00,,,0.65,meteohub,2013-08-29 00:48:00,
2013-08-28 20:54:00,71.1,70.5,29.84,NNE,32,0.0,1.0,98,0.00,,,0.65,meteohub,2013-08-29 00:54:00,
2013-08-28 21:00:00,70.9,70.3,29.84,NNE,32,0.0,0.0,98,0.00,,,0.65,meteohub,2013-08-29 01:00:00,
2013-08-28 21:06:00,70.9,70.3,29.84,NNE,26,0.0,0.0,98,0.00,,,0.65,meteohub,2013-08-29 01:06:00,
2013-08-28 21:12:00,70.9,70.3,29.84,NNE,26,0.0,1.0,98,0.00,,,0.65,meteohub,2013-08-29 01:12:00,
2013-08-28 21:17:00,70.9,70.3,29.84,NNE,26,0.0,1.0,98,0.00,,,0.65,meteohub,2013-08-29 01:17:00,
2013-08-28 21:22:00,70.9,70.3,29.84,NNE,26,0.0,1.0,98,0.00,,,0.65,meteohub,2013-08-29 01:22:00,
2013-08-28 21:27:00,70.9,70.3,29.84,NNE,26,0.0,0.0,98,0.00,,,0.65,meteohub,2013-08-29 01:27:00,
2013-08-28 21:32:00,70.9,70.3,29.84,NNE,26,0.0,0.0,98,0.00,,,0.65,meteohub,2013-08-29 01:32:00,
2013-08-28 21:37:00,70.9,70.3,29.84,NNE,26,0.0,0.0,98,0.00,,,0.65,meteohub,2013-08-29 01:37:00,
2013-08-28 21:42:00,70.9,70.3,29.85,NNE,26,0.0,0.0,98,0.00,,,0.65,meteohub,2013-08-29 01:42:00,
2013-08-28 21:47:00,70.9,70.3,29.85,NNE,26,0.0,0.0,98,0.00,,,0.65,meteohub,2013-08-29 01:47:00,
2013-08-28 21:52:00,70.9,70.3,29.85,NNE,26,0.0,0.0,98,0.00,,,0.65,meteohub,2013-08-29 01:52:00,
2013-08-28 21:57:00,70.9,70.3,29.85,NNE,26,0.0,0.0,98,0.00,,,0.65,meteohub,2013-08-29 01:57:00,
2013-08-28 22:02:00,70.9,70.3,29.85,NNE,26,0.0,0.0,98,0.00,,,0.65,meteohub,2013-08-29 02:02:00,
2013-08-28 22:07:00,70.9,70.3,29.85,NNE,26,0.0,0.0,98,0.00,,,0.65,meteohub,2013-08-29 02:07:00,
2013-08-28 22:12:00,70.9,70.3,29.85,NNE,26,0.0,0.0,98,0.00,,,0.65,meteohub,2013-08-29 02:12:00,
2013-08-28 22:17:00,70.9,70.3,29.85,NNE,26,0.0,0.0,98,0.00,,,0.65,meteohub,2013-08-29 02:17:00,
2013-08-28 22:22:00,70.9,70.3,29.85,NNE,26,0.0,0.0,98,0.00,,,0.65,meteohub,2013-08-29 02:22:00,
2013-08-28 22:27:00,70.9,70.3,29.85,NNE,26,0.0,0.0,98,0.00,,,0.65,meteohub,2013-08-29 02:27:00,
2013-08-28 22:32:00,70.9,70.3,29.85,NNE,26,0.0,0.0,98,0.00,,,0.65,meteohub,2013-08-29 02:32:00,
2013-08-28 22:37:00,70.9,70.3,29.85,NNE,26,0.0,0.0,98,0.00,,,0.65,meteohub,2013-08-29 02:37:00,
2013-08-28 22:42:00,70.9,70.3,29.85,NNE,26,0.0,0.0,98,0.00,,,0.65,meteohub,2013-08-29 02:42:00,
2013-08-28 22:47:00,70.9,70.3,29.86,NNE,26,0.0,0.0,98,0.00,,,0.65,meteohub,2013-08-29 02:47:00,
2013-08-28 22:52:00,70.7,70.2,29.86,NNE,26,0.0,0.0,98,0.00,,,0.65,meteohub,2013-08-29 02:52:00,
2013-08-28 22:58:00,70.7,70.2,29.86,NNE,26,0.0,0.0,98,0.00,,,0.65,meteohub,2013-08-29 02:58:00,
2013-08-28 23:04:00,70.7,70.2,29.86,NNE,26,0.0,0.0,98,0.00,,,0.65,meteohub,2013-08-29 03:04:00,
2013-08-28 23:10:00,70.7,70.2,29.86,NNE,26,0.0,0.0,98,0.00,,,0.65,meteohub,2013-08-29 03:10:00,
2013-08-28 23:16:00,70.9,70.3,29.86,NNE,26,0.0,0.0,98,0.00,,,0.65,meteohub,2013-08-29 03:16:00,
2013-08-28 23:22:00,70.7,70.2,29.86,NNE,26,0.0,0.0,98,0.00,,,0.65,meteohub,2013-08-29 03:22:00,
2013-08-28 23:27:00,70.7,70.2,29.86,NNE,26,0.0,0.0,98,0.00,,,0.65,meteohub,2013-08-29 03:27:00,
2013-08-28 23:32:00,70.7,70.2,29.86,NNE,26,0.0,0.0,98,0.00,,,0.65,meteohub,2013-08-29 03:32:00,
2013-08-28 23:37:00,70.7,70.2,29.86,NNE,26,0.0,0.0,98,0.00,,,0.65,meteohub,2013-08-29 03:37:00,
2013-08-28 23:42:00,70.5,70.0,29.86,NNE,26,0.0,0.0,98,0.00,,,0.65,meteohub,2013-08-29 03:42:00,
2013-08-28 23:47:00,70.5,70.0,29.86,NNE,26,0.0,0.0,98,0.00,,,0.65,meteohub,2013-08-29 03:47:00,
2013-08-28 23:52:00,70.5,70.0,29.86,NNE,26,0.0,0.0,98,0.00,,,0.65,meteohub,2013-08-29 03:52:00,
2013-08-28 23:57:00,70.5,70.0,29.86,NNE,26,0.0,0.0,98,0.00,,,0.65,meteohub,2013-08-29 03:57:00,